FENGYUN 1C DEB

Satellite information

Favourite Embed

Satellite Type and Status

DEBRISIN ORBIT

Key statistics

Satellite FENGYUN 1C DEB at a glance.

Uptime

9714

Days in orbit

Revolutions

≈ 14.4

Per day

Orbit

SSO

Sun Synchronous Orbit

Inclination

98.2

Latest

Satellite identification and parameters

Extended collection of information and parameters for FENGYUN 1C DEB.

Object identification

Identified? True

Debris? True

Object name: FENGYUN 1C DEB

International designator: 1999-025BUX

Object number (NORAD): 31459

Object ID (CCSDS): 31459

Country: PEOPLES REPUBLIC OF CHINA (PRC)

Current information (Y/N): Y

RCS size: SMALL

Orbital parameters

Period: 99.721 minutes

Inclination: 98.1755 deg

SMA: 7123.377 km

Apoapsis: 812.06 km

Periapsis: 678.424 km

RAAN: 251.3793 deg

Eccentricy: 0.0093801

Argument of periapsis: 143.1676 deg

Mean anomaly: 217.6008 deg

Mean motion: 14.44022338 rev/day

Mean motion (dot): 0.0000543 rev/day2

B* drag term: 0.0015164 1/REarth

Two-line elements (TLE)

Creation date: Dec. 9, 2025, 8:16 a.m.

Reference frame: TEME

Reference center: EARTH

Epoch: Dec. 8, 2025, 11:17 p.m. UTC

TLE line 0: 0 FENGYUN 1C DEB

TLE line 1: 1 31459U 99025BUX 25342.97047883 .00005430 00000-0 15164-2 0 9990

TLE line 2: 2 31459 98.1755 251.3793 0093801 143.1676 217.6008 14.44022338645031

Live tracking on map

Real-time ground track for satellite FENGYUN 1C DEB.

In-orbit conjunctions

A list of the most updated potential collisions computed for object FENGYUN 1C DEB.

Target Orbit TCA Probability of collision Miss distance Type
THORAD AGENA D DEB SSO 2024-11-16 17:23:14 0.0001023645 195.0 (m) DEBRIS
CZ-6A DEB SSO 2024-11-13 00:58:57 0.0001073612 122.0 (m) DEBRIS

Associated space launch

Chinese polar orbiting meteorological satellite

FENGYUN 1C DEB was lifted into orbit during the mission ‘Long March 4B | Feng Yun 1C’, on board a Long March 4B space rocket.

The launch took place on May 10, 1999, 1:33 a.m. from Launch Complex 7.

For more information about the launch, click the button.

Launch to space Long March 4B | Feng Yun 1C
Long March 4B | Feng Yun 1C

Agency: N/A

Status: Launch Successful

Launch date: May 10, 1999, 1:33 a.m. UTC

Rocket: Long March 4B

Launch pad: Launch Complex 7

Location: Taiyuan Satellite Launch Center, People's Republic of China

...

Latest news about this satellite

There are no fresh news available about this satellite. Check back as we update our databases every day.


Newsletter sign-up

Weekly statistics, charts and insights to help you stay on top of the space industry.